• In Uzbekistan
  • List of Countries
  • For 7 days
  • Water Temperature
  • Weather Map
  • Weather Widgets
  • user-avatar
    Login

    Hourly Weather Ayia Napa

    Today, 25 August, Sunday

    Time Temperature Precipitation Wind Pressure Humidity
    00:00 +30°C° 0 mm 3 mps 753 mmHg 58%
    01:00 +29°C° 0 mm 3 mps 753 mmHg 60%
    02:00 +29°C° 0 mm 2 mps 753 mmHg 62%
    03:00 +28°C° 0 mm 2 mps 753 mmHg 61%
    04:00 +28°C° 0 mm 1 mps 753 mmHg 61%
    05:00 +28°C° 0 mm 1 mps 753 mmHg 61%
    06:00 +30°C° 0 mm 1 mps 753 mmHg 53%
    07:00 +32°C° 0 mm 1 mps 754 mmHg 45%
    08:00 +34°C° 0 mm 1 mps 754 mmHg 37%
    09:00 +36°C° 0 mm 2 mps 754 mmHg 36%
    10:00 +37°C° 0 mm 3 mps 754 mmHg 35%
    11:00 +39°C° 0 mm 5 mps 754 mmHg 34%
    12:00 +39°C° 0 mm 5 mps 754 mmHg 33%
    13:00 +40°C° 0 mm 6 mps 754 mmHg 32%
    14:00 +40°C° 0 mm 6 mps 754 mmHg 32%
    15:00 +39°C° 0 mm 6 mps 753 mmHg 35%
    16:00 +38°C° 0 mm 6 mps 753 mmHg 37%
    17:00 +38°C° 0 mm 6 mps 753 mmHg 40%
    18:00 +35°C° 0 mm 6 mps 753 mmHg 46%
    19:00 +33°C° 0 mm 5 mps 753 mmHg 51%
    20:00 +32°C° 0 mm 4 mps 753 mmHg 57%
    21:00 +30°C° 0 mm 4 mps 753 mmHg 58%
    22:00 +29°C° 0 mm 3 mps 753 mmHg 60%
    23:00 +29°C° 0 mm 2 mps 753 mmHg 62%

    Tomorrow, 26 August, Monday

    Time Temperature Precipitation Wind Pressure Humidity
    00:00 +28°C° 0 mm 2 mps 753 mmHg 62%
    01:00 +28°C° 0 mm 2 mps 753 mmHg 61%
    02:00 +28°C° 0 mm 1 mps 752 mmHg 61%
    03:00 +27°C° 0 mm 2 mps 753 mmHg 63%
    04:00 +27°C° 0 mm 2 mps 753 mmHg 65%
    05:00 +26°C° 0 mm 2 mps 753 mmHg 67%
    06:00 +28°C° 0 mm 3 mps 753 mmHg 60%
    07:00 +31°C° 0 mm 3 mps 753 mmHg 53%
    08:00 +34°C° 0 mm 4 mps 753 mmHg 46%
    09:00 +35°C° 0 mm 4 mps 754 mmHg 42%
    10:00 +37°C° 0 mm 5 mps 754 mmHg 38%
    11:00 +39°C° 0 mm 5 mps 754 mmHg 33%
    12:00 +39°C° 0 mm 6 mps 754 mmHg 35%
    13:00 +39°C° 0 mm 6 mps 754 mmHg 36%
    14:00 +39°C° 0 mm 7 mps 754 mmHg 38%
    15:00 +38°C° 0 mm 7 mps 753 mmHg 40%
    16:00 +38°C° 0 mm 7 mps 753 mmHg 42%
    17:00 +36°C° 0 mm 7 mps 753 mmHg 44%
    18:00 +34°C° 0 mm 6 mps 753 mmHg 51%
    19:00 +33°C° 0 mm 5 mps 753 mmHg 57%
    20:00 +30°C° 0 mm 5 mps 754 mmHg 63%
    21:00 +29°C° 0 mm 4 mps 754 mmHg 66%
    22:00 +29°C° 0 mm 3 mps 754 mmHg 70%
    23:00 +28°C° 0 mm 2 mps 754 mmHg 73%

    Day after tomorrow, 27 August, Tuesday

    Time Temperature Precipitation Wind Pressure Humidity
    00:00 +28°C° 0 mm 1 mps 753 mmHg 75%
    01:00 +27°C° 0 mm 1 mps 753 mmHg 78%
    02:00 +27°C° 0 mm 1 mps 753 mmHg 80%
    03:00 +26°C° 0 mm 1 mps 753 mmHg 81%
    04:00 +26°C° 0 mm 1 mps 753 mmHg 83%
    05:00 +25°C° 0 mm 2 mps 753 mmHg 84%
    06:00 +27°C° 0 mm 2 mps 753 mmHg 75%
    07:00 +29°C° 0 mm 2 mps 753 mmHg 65%
    08:00 +32°C° 0 mm 2 mps 754 mmHg 55%
    09:00 +34°C° 0 mm 3 mps 754 mmHg 49%
    10:00 +36°C° 0 mm 3 mps 754 mmHg 43%
    11:00 +38°C° 0 mm 4 mps 754 mmHg 37%
    12:00 +38°C° 0 mm 4 mps 754 mmHg 36%
    13:00 +39°C° 0 mm 5 mps 754 mmHg 35%
    14:00 +40°C° 0 mm 5 mps 753 mmHg 35%
    15:00 +39°C° 0 mm 5 mps 753 mmHg 39%
    16:00 +36°C° 0 mm 5 mps 753 mmHg 44%
    17:00 +35°C° 0 mm 5 mps 753 mmHg 49%
    18:00 +34°C° 0 mm 4 mps 753 mmHg 57%
    19:00 +32°C° 0 mm 4 mps 753 mmHg 65%
    20:00 +29°C° 0 mm 3 mps 753 mmHg 73%
    21:00 +29°C° 0 mm 3 mps 753 mmHg 74%
    22:00 +29°C° 0 mm 3 mps 753 mmHg 75%
    23:00 +29°C° 0 mm 3 mps 753 mmHg 76%

    28 August, Wednesday

    Time Temperature Precipitation Wind Pressure Humidity
    00:00 +28°C° 0 mm 2 mps 753 mmHg 78%
    01:00 +27°C° 0 mm 2 mps 753 mmHg 79%
    02:00 +27°C° 0 mm 1 mps 752 mmHg 81%
    03:00 +26°C° 0 mm 1 mps 752 mmHg 83%
    04:00 +26°C° 0 mm 2 mps 752 mmHg 85%
    05:00 +25°C° 0 mm 2 mps 752 mmHg 86%
    06:00 +28°C° 0 mm 2 mps 752 mmHg 75%
    07:00 +30°C° 0 mm 2 mps 753 mmHg 65%
    08:00 +33°C° 0 mm 3 mps 753 mmHg 54%
    09:00 +35°C° 0 mm 3 mps 753 mmHg 48%
    10:00 +36°C° 0 mm 4 mps 753 mmHg 42%
    11:00 +37°C° 0 mm 4 mps 753 mmHg 37%
    12:00 +39°C° 0 mm 5 mps 753 mmHg 36%
    13:00 +39°C° 0 mm 5 mps 752 mmHg 35%
    14:00 +40°C° 0 mm 5 mps 752 mmHg 33%
    15:00 +39°C° 0 mm 5 mps 752 mmHg 36%
    16:00 +37°C° 0 mm 5 mps 752 mmHg 39%
    17:00 +36°C° 0 mm 5 mps 752 mmHg 42%
    18:00 +34°C° 0 mm 5 mps 752 mmHg 50%
    19:00 +32°C° 0 mm 4 mps 752 mmHg 58%
    20:00 +29°C° 0 mm 4 mps 752 mmHg 66%
    21:00 +29°C° 0 mm 3 mps 752 mmHg 67%
    22:00 +29°C° 0 mm 3 mps 752 mmHg 69%
    23:00 +28°C° 0 mm 3 mps 752 mmHg 70%

    29 August, Thursday

    Time Temperature Precipitation Wind Pressure Humidity
    00:00 +28°C° 0 mm 2 mps 752 mmHg 69%
    01:00 +28°C° 0 mm 2 mps 752 mmHg 68%
    02:00 +27°C° 0 mm 2 mps 752 mmHg 67%
    03:00 +27°C° 0 mm 2 mps 752 mmHg 71%
    04:00 +26°C° 0 mm 1 mps 752 mmHg 76%
    05:00 +26°C° 0 mm 1 mps 752 mmHg 80%
    06:00 +28°C° 0 mm 1 mps 752 mmHg 70%
    07:00 +30°C° 0 mm 1 mps 752 mmHg 61%
    08:00 +32°C° 0 mm 1 mps 752 mmHg 51%
    09:00 +34°C° 0 mm 2 mps 752 mmHg 46%
    10:00 +36°C° 0 mm 3 mps 753 mmHg 41%
    11:00 +37°C° 0 mm 4 mps 753 mmHg 36%
    12:00 +38°C° 0 mm 4 mps 752 mmHg 34%
    13:00 +38°C° 0 mm 4 mps 752 mmHg 32%
    14:00 +40°C° 0 mm 4 mps 752 mmHg 31%
    15:00 +38°C° 0 mm 4 mps 752 mmHg 32%
    16:00 +37°C° 0 mm 4 mps 751 mmHg 33%
    17:00 +36°C° 0 mm 5 mps 751 mmHg 34%
    18:00 +35°C° 0 mm 5 mps 752 mmHg 42%
    19:00 +33°C° 0 mm 5 mps 752 mmHg 49%
    20:00 +30°C° 0 mm 5 mps 752 mmHg 56%
    21:00 +30°C° 0 mm 5 mps 752 mmHg 56%
    22:00 +29°C° 0 mm 5 mps 752 mmHg 56%
    23:00 +29°C° 0 mm 5 mps 752 mmHg 56%

    30 August, Friday

    Time Temperature Precipitation Wind Pressure Humidity
    00:00 +29°C° 0 mm 5 mps 752 mmHg 54%
    01:00 +29°C° 0 mm 5 mps 752 mmHg 51%
    02:00 +29°C° 0 mm 5 mps 752 mmHg 48%
    03:00 +29°C° 0 mm 4 mps 752 mmHg 47%
    04:00 +28°C° 0 mm 4 mps 752 mmHg 47%
    05:00 +28°C° 0 mm 3 mps 752 mmHg 46%
    06:00 +30°C° 0 mm 3 mps 752 mmHg 41%
    07:00 +32°C° 0 mm 2 mps 752 mmHg 37%
    08:00 +35°C° 0 mm 2 mps 752 mmHg 32%
    09:00 +36°C° 0 mm 3 mps 753 mmHg 30%
    10:00 +37°C° 0 mm 3 mps 753 mmHg 28%
    11:00 +38°C° 0 mm 3 mps 753 mmHg 25%
    12:00 +38°C° 0 mm 4 mps 753 mmHg 25%
    13:00 +38°C° 0 mm 4 mps 753 mmHg 25%
    14:00 +39°C° 0 mm 5 mps 752 mmHg 25%
    15:00 +37°C° 0 mm 5 mps 752 mmHg 30%
    16:00 +36°C° 0 mm 6 mps 752 mmHg 36%
    17:00 +34°C° 0 mm 6 mps 752 mmHg 42%
    18:00 +33°C° 0 mm 5 mps 752 mmHg 49%
    19:00 +30°C° 0 mm 5 mps 752 mmHg 56%
    20:00 +28°C° 0 mm 5 mps 752 mmHg 63%
    21:00 +28°C° 0 mm 4 mps 752 mmHg 64%
    22:00 +28°C° 0 mm 4 mps 752 mmHg 66%
    23:00 +27°C° 0 mm 3 mps 752 mmHg 68%
    Show more